[[{"header":{"parameterUnit":"m.s-1","parameterCategory":1,"la1":30.2991,"la2":30.254,"lo1":-89.0895,"lo2":-89.0444,"dy":0.0017,"dx":0.0017,"nx":28,"ny":28,"refTime":"2024-06-05T21:00:00:Z","depth":0,"parameterNumber":2,"parameterNumberName":"U-component_of_WINDS"},"data":[0,0,0,0,0,0,0,0,0,0,0,0,0,0,0,0,0,0,0,0,0,0,0,0,0,0,0,0,0,0,0,0,0,0,0,0,0,0,0,0,0,0,0,0,0,0,0,0,0,0,0,0,0,0,0,0,0,0,1.0986,1.0987,0,1.1062,1.1063,1.1064,1.1094,1.1094,1.1094,1.1093,1.1169,1.1171,1.1174,0,0,0,0,0,0,0,0,0,0,0,0,0,1.0865,1.0867,1.0986,1.0987,1.0988,1.1062,1.1063,1.1064,1.1094,1.1094,1.1094,1.1093,1.1169,1.1171,1.1174,0,0,0,0,0,0,0,0,0,0,0,0,0,1.0927,1.0868,1.0986,1.1012,1.1015,1.1062,1.1063,1.1065,1.1094,1.1094,1.1093,1.1093,1.1168,1.1171,1.1174,1.12,0,0,1.1184,1.1186,0,0,0,0,0,0,0,0,1.0923,1.0931,1.1007,1.101,1.1014,1.1068,1.1048,1.111,1.1094,1.1064,1.1093,1.1093,1.1136,1.1142,1.1157,1.1204,1.1207,1.1185,1.1187,1.1188,1.1189,0,0,0,0,0,0,0,1.0919,1.0928,1.1016,1.1008,1.1012,1.1019,1.1028,1.106,1.1101,1.1067,1.1069,1.1078,1.1138,1.1153,1.1159,1.1208,1.1184,1.1187,1.1189,1.1191,1.1281,1.1281,0,0,0,0,0,0,1.0911,1.0925,1.1014,1.1019,1.0967,1.1022,1.1031,1.1051,1.11,1.1108,1.1078,1.1079,1.1148,1.1155,1.1161,1.1195,1.1188,1.1191,1.1193,1.1281,1.1281,1.1281,0,0,0,0,0,0,1.0908,1.0919,1.1011,1.0972,1.0985,1.1024,1.1046,1.1053,1.1069,1.1109,1.1116,1.1087,1.1148,1.1157,1.1191,1.1198,1.1192,1.1195,1.128,1.1281,1.1281,1.1263,0,0,0,0,0,0,1.0904,1.0917,1.0928,1.0972,1.0987,1.1039,1.1047,1.1055,1.1075,1.1076,1.1119,1.1126,1.1148,1.1185,1.1194,1.1203,1.1198,1.128,1.128,1.1281,1.1263,1.1263,1.1263,0,0,0,0,0,1.09,1.092,1.0929,1.0939,1.1001,1.104,1.1048,1.1074,1.1075,1.1086,1.1112,1.1124,1.1196,1.1189,1.1198,1.1208,1.1279,1.128,1.1281,1.1264,1.1263,1.1263,0,0,0,0,0,0,1.0874,1.0926,1.0936,1.0971,1.1001,1.1045,1.1059,1.1073,1.1103,1.1103,1.1134,1.1143,1.1174,1.1195,1.1186,1.1236,1.1239,1.1241,1.1222,1.1222,1.1222,1.1216,1.1201,0,0,0,0,0,1.0873,1.0901,1.0944,1.097,1.0985,1.1019,1.1037,1.1055,1.1087,1.1099,1.1128,1.1158,1.1187,1.1206,1.1235,1.1267,1.1276,1.1278,1.1278,1.1278,1.128,1.1298,1.13,1.1285,1.1285,1.1285,0,0,1.087,1.0901,1.0917,1.0966,1.0991,1.1019,1.103,1.1058,1.1079,1.1104,1.1138,1.1159,1.1195,1.1228,1.1244,1.1246,1.1286,1.1279,1.1278,1.1281,1.1299,1.1301,1.1302,1.1285,1.1285,1.1285,0,0,1.0878,1.0905,1.093,1.0955,1.0994,1.1017,1.1023,1.1065,1.108,1.1115,1.1134,1.1159,1.1209,1.1233,1.1252,1.127,1.1283,1.1279,1.1278,1.1296,1.1297,1.1298,1.1304,1.1306,1.1281,1.1281,1.1281,0,1.0869,1.0913,1.0941,1.0969,1.099,1.1014,1.1039,1.1062,1.1108,1.1121,1.1123,1.1187,1.1212,1.1251,1.1256,1.127,1.1278,1.1274,1.1294,1.1296,1.1297,1.1304,1.1306,1.128,1.128,1.128,1.128,0,1.09,1.0929,1.0945,1.0989,1.1012,1.1038,1.107,1.1089,1.1105,1.1127,1.1162,1.1194,1.123,1.124,1.1256,1.1282,1.1282,1.1289,1.1291,1.1298,1.1304,1.1307,1.1279,1.1279,1.128,1.128,0,0,1.0894,1.0954,1.0959,1.098,1.1024,1.1047,1.1074,1.1111,1.1126,1.1157,1.118,1.1222,1.1229,1.1251,1.1269,1.1284,1.1296,1.1289,1.1291,1.1289,1.1327,1.1321,1.1323,1.1305,1.1306,1.1306,1.1324,0,1.0908,1.0959,1.0986,1.1025,1.1052,1.1076,1.11,1.1129,1.1151,1.1177,1.1201,1.123,1.1237,1.125,1.1266,1.1291,1.1304,1.1291,1.1327,1.1328,1.1317,1.1327,1.1321,1.1336,1.1326,1.1327,1.1327,0,1.0932,1.0963,1.1005,1.1047,1.1059,1.108,1.1116,1.114,1.1174,1.1189,1.1213,1.1231,1.126,1.1261,1.1301,1.1291,1.1307,1.1322,1.1323,1.1328,1.1328,1.1331,1.1342,1.1344,1.1331,1.1331,1.1331,0,1.0924,1.0976,1.1008,1.1025,1.1074,1.1088,1.1109,1.1143,1.1163,1.1193,1.1206,1.124,1.1258,1.1283,1.1309,1.1307,1.1347,1.135,1.1359,1.1359,1.1366,1.1366,1.1379,1.1377,1.1377,1.1377,1.1377,0,1.0937,1.0962,1.1005,1.1025,1.1053,1.1083,1.111,1.1133,1.1163,1.1187,1.1209,1.123,1.1264,1.129,1.1311,1.1341,1.1349,1.1361,1.1366,1.1359,1.1358,1.137,1.137,1.1378,1.1377,1.1377,1.1377,0,1.0932,1.0962,1.0999,1.1043,1.1054,1.1073,1.111,1.113,1.1153,1.1183,1.1192,1.1228,1.126,1.1288,1.133,1.1344,1.1375,1.1381,1.1364,1.1366,1.1375,1.1373,1.1397,1.1401,1.1396,1.1396,1.1396,0,1.0939,1.0959,1.1005,1.1023,1.1044,1.1072,1.1093,1.1123,1.1144,1.1184,1.1198,1.1232,1.126,1.131,1.1339,1.1371,1.1379,1.1385,1.1384,1.1376,1.1379,1.1377,1.1379,1.1384,1.1384,1.1384,1.1384,0,1.0947,1.0961,1.0991,1.1025,1.105,1.1078,1.1108,1.1121,1.1156,1.1178,1.1212,1.1234,1.1277,1.131,1.1345,1.1366,1.1381,1.1384,1.1388,1.1381,1.137,1.1376,1.1363,1.1384,1.1384,1.1384,1.1384,1.1384,1.0948,1.0967,1.1002,1.1035,1.106,1.1087,1.1108,1.1133,1.1162,1.12,1.1216,1.1249,1.1282,1.1332,1.1353,1.1379,1.1382,1.1387,1.1389,1.139,1.1389,1.1366,1.1385,1.1385,1.1386,1.1386,1.1386,0,1.0958,1.0982,1.1011,1.1052,1.1077,1.1089,1.1122,1.1142,1.1172,1.1202,1.123,1.1268,1.13,1.1332,1.1365,1.138,1.1388,1.1388,1.1387,1.1392,1.1384,1.1377,1.1381,1.1381,1.1381,1.1381,1.1381,1.1381,1.0965,1.0998,1.1016,1.1061,1.1085,1.1119,1.1137,1.1161,1.1185,1.1227,1.1254,1.1275,1.1306,1.1342,1.1372,1.138,1.1391,1.139,1.14,1.1392,1.1392,1.1392,1.1386,1.1392,1.1392,1.1406,1.1406,1.1406]},{"header":{"parameterUnit":"m.s-1","parameterCategory":1,"la1":30.2991,"la2":30.254,"lo1":-89.0895,"lo2":-89.0444,"dy":0.0017,"dx":0.0017,"nx":28,"ny":28,"refTime":"2024-06-05T21:00:00:Z","depth":0,"parameterNumber":3,"parameterNumberName":"V-component_of_WINDS"},"data":[0,0,0,0,0,0,0,0,0,0,0,0,0,0,0,0,0,0,0,0,0,0,0,0,0,0,0,0,0,0,0,0,0,0,0,0,0,0,0,0,0,0,0,0,0,0,0,0,0,0,0,0,0,0,0,0,0,0,4.8454,4.8455,0,4.8524,4.8525,4.8525,4.8528,4.8527,4.8526,4.8525,4.8591,4.8593,4.8595,0,0,0,0,0,0,0,0,0,0,0,0,0,4.8319,4.8321,4.8454,4.8455,4.8456,4.8524,4.8525,4.8526,4.8528,4.8527,4.8526,4.8525,4.859,4.8593,4.8596,0,0,0,0,0,0,0,0,0,0,0,0,0,4.8382,4.8322,4.8454,4.8466,4.8467,4.8524,4.8525,4.8526,4.8528,4.8527,4.8526,4.8525,4.8589,4.8592,4.8596,4.8644,0,0,4.8607,4.8609,0,0,0,0,0,0,0,0,4.8378,4.8387,4.8463,4.8465,4.8467,4.8516,4.8501,4.8565,4.8529,4.8505,4.8525,4.8524,4.8566,4.8572,4.8587,4.8647,4.865,4.8608,4.861,4.8612,4.8613,0,0,0,0,0,0,0,4.8374,4.8384,4.8482,4.8464,4.8466,4.8466,4.8473,4.8513,4.8541,4.8507,4.8507,4.8516,4.8567,4.8584,4.8589,4.8651,4.8608,4.8611,4.8613,4.8615,4.8755,4.8756,0,0,0,0,0,0,4.8368,4.838,4.8479,4.8484,4.8419,4.8469,4.8478,4.8501,4.8541,4.8546,4.8517,4.8516,4.8578,4.8585,4.8591,4.8651,4.8612,4.8615,4.8617,4.8753,4.8755,4.8757,0,0,0,0,0,0,4.8365,4.8377,4.8477,4.8432,4.8445,4.8473,4.8499,4.8503,4.852,4.8549,4.8553,4.8529,4.8577,4.8586,4.8632,4.8653,4.8617,4.862,4.8752,4.8754,4.8756,4.8771,0,0,0,0,0,0,4.8361,4.8376,4.8395,4.8433,4.8447,4.8517,4.8501,4.8506,4.8527,4.8527,4.8561,4.8566,4.8577,4.8626,4.8635,4.8658,4.8623,4.875,4.8753,4.8755,4.8768,4.8773,4.8777,0,0,0,0,0,4.8356,4.8394,4.8396,4.8408,4.8472,4.8518,4.8526,4.854,4.8529,4.8548,4.8567,4.8565,4.865,4.8631,4.8641,4.8665,4.8748,4.8752,4.8755,4.8766,4.8772,4.8777,0,0,0,0,0,0,4.8355,4.8399,4.8402,4.8453,4.8483,4.8519,4.8543,4.8546,4.8577,4.8574,4.8589,4.8597,4.8642,4.8658,4.8636,4.8715,4.8698,4.8703,4.8703,4.8708,4.8713,4.8708,4.8626,0,0,0,0,0,4.8362,4.8397,4.8433,4.8475,4.849,4.8514,4.8535,4.8544,4.8573,4.8585,4.8607,4.8634,4.8668,4.8689,4.8721,4.8771,4.8779,4.8793,4.8797,4.8801,4.8805,4.8835,4.8841,4.8768,4.8768,4.8768,0,0,4.8374,4.8402,4.8423,4.8476,4.8499,4.8535,4.8524,4.8561,4.8588,4.859,4.8635,4.8653,4.8684,4.8733,4.8756,4.8748,4.8828,4.8805,4.8808,4.881,4.8839,4.8846,4.8852,4.877,4.877,4.8769,0,0,4.8415,4.844,4.8479,4.8504,4.8541,4.8558,4.8567,4.8604,4.8616,4.8663,4.8666,4.8696,4.8753,4.8776,4.8795,4.8849,4.8848,4.8858,4.8881,4.891,4.8915,4.8921,4.894,4.8947,4.8863,4.8863,4.8863,0,4.8424,4.848,4.8498,4.8537,4.856,4.8567,4.8606,4.8628,4.8673,4.8688,4.868,4.8753,4.8774,4.883,4.8843,4.8858,4.8869,4.8854,4.8914,4.8919,4.8924,4.8943,4.895,4.8864,4.8864,4.8864,4.8864,0,4.8491,4.853,4.8556,4.8603,4.8629,4.8668,4.8691,4.8715,4.8722,4.8739,4.8787,4.8814,4.8852,4.8866,4.8872,4.8923,4.8917,4.8911,4.8894,4.8932,4.895,4.8958,4.8865,4.8865,4.8865,4.8864,0,0,4.8531,4.859,4.8599,4.8622,4.8665,4.8694,4.8733,4.8774,4.8795,4.8826,4.8859,4.8908,4.8904,4.8926,4.8935,4.896,4.9002,4.8951,4.8952,4.896,4.9061,4.9065,4.9074,4.9002,4.9004,4.9005,4.9058,0,4.8577,4.865,4.8668,4.8729,4.8766,4.8774,4.8808,4.8838,4.8856,4.8888,4.8906,4.8942,4.8933,4.8946,4.8972,4.8991,4.9022,4.8988,4.9032,4.9034,4.9024,4.9083,4.9087,4.9137,4.9066,4.9067,4.9068,0,4.864,4.8676,4.8742,4.8783,4.8799,4.883,4.887,4.8901,4.8935,4.8946,4.8972,4.898,4.902,4.9002,4.9059,4.9035,4.9054,4.9067,4.9069,4.9074,4.9053,4.9089,4.9153,4.916,4.9079,4.9078,4.9077,0,4.8663,4.8728,4.8777,4.8796,4.8844,4.8866,4.8887,4.892,4.8944,4.8979,4.8994,4.9032,4.9052,4.9081,4.9098,4.9083,4.9153,4.9136,4.9163,4.9163,4.9177,4.9176,4.9245,4.9189,4.9189,4.9189,4.9189,0,4.8713,4.8753,4.8789,4.8819,4.8864,4.8885,4.8929,4.8949,4.8979,4.9013,4.9021,4.9052,4.9073,4.9106,4.912,4.9165,4.9174,4.9183,4.9186,4.9183,4.9182,4.9195,4.9192,4.9191,4.9191,4.919,4.919,0,4.8746,4.8772,4.8826,4.8869,4.8881,4.8913,4.8949,4.8978,4.8997,4.9039,4.905,4.9079,4.912,4.914,4.9189,4.9198,4.9249,4.925,4.9239,4.924,4.9266,4.9264,4.9346,4.9358,4.9295,4.9295,4.9296,0,4.8776,4.8808,4.8856,4.8881,4.8903,4.8941,4.8967,4.8989,4.9015,4.9058,4.9082,4.9124,4.9158,4.9221,4.9246,4.9284,4.9286,4.9312,4.9291,4.9287,4.9287,4.9285,4.9289,4.9316,4.9316,4.9317,4.9317,0,4.8827,4.8839,4.8877,4.8921,4.8952,4.8986,4.902,4.9039,4.9066,4.9095,4.9138,4.9165,4.9218,4.9258,4.9299,4.9319,4.9323,4.9324,4.9332,4.9329,4.9321,4.9327,4.9249,4.9322,4.9321,4.9321,4.9321,4.932,4.886,4.8889,4.8929,4.8972,4.9,4.9033,4.9063,4.9087,4.9124,4.9171,4.9181,4.9226,4.9261,4.9317,4.9338,4.9373,4.9368,4.9379,4.9382,4.9385,4.9387,4.9316,4.9381,4.938,4.938,4.938,4.938,0,4.8911,4.8938,4.8978,4.9027,4.9061,4.9065,4.9103,4.913,4.9171,4.9205,4.924,4.929,4.933,4.9359,4.9401,4.9423,4.9426,4.9433,4.9432,4.9437,4.9389,4.9378,4.9431,4.943,4.943,4.943,4.943,4.943,4.8942,4.8993,4.9011,4.9076,4.9102,4.9149,4.9171,4.9201,4.9228,4.9285,4.932,4.934,4.9371,4.9415,4.9453,4.946,4.9475,4.9482,4.949,4.9445,4.9439,4.9434,4.9424,4.9485,4.9485,4.9534,4.9535,4.9535]}]]